Flag for Canada Weather past 2 weeks in Annapolis County, Nova Scotia, Canada

Now
77 °F

Warm.


Feels Like: 79 °F
Forecast: 56 / 73 °F
Wind: 6 mph from South

Location: Kejimkujik 1

Current Time: Aug 1, 2014 at 1:45:20 PM

Latest Report: Aug 1, 2014 at 1:00 PM


Visibility: N/A

Pressure: 30.26 "Hg

Humidity: 55%

Dew point: 60 °F

Location of Annapolis CountyLocation

Historic Weather in Annapolis County — Graph

°F

Annapolis County temperature yesterday

Maximum temperature yesterday: 76 °F (at 4:00 PM)
Minimum temperature yesterday: 60 °F (at 6:00 AM)
Average temperature yesterday: 68 °F

Past Weeks' High & Low Weather Summary

 TemperatureHumidityPressure
High84 °F (Jul 23, 3:00 PM)100% (Jul 30, 9:00 AM)30.27 "Hg (Jul 30, 9:00 AM)
Low52 °F (Aug 1, 5:00 AM)38% (Jul 19, 5:00 PM)29.64 "Hg (Jul 29, 3:00 AM)
Average67 °F79%29.91 "Hg
* Reported Jul 17 12:00 Noon — Aug 1 12:00 Noon, Annapolis County, Weather by CustomWeather, © 2014

Note: Actual official high and low records may vary slightly from our data, if they occured in-between our weather recording intervals... More about our weather records

Advertising

Annapolis County weather history for previous 24 hours

 ConditionsComfort  
Time TempWeatherWind HumidityBarometerVisibility
12:00 PM
Aug 1
74 °FMild.3 mph58%30.26 "HgN/A
11:00 AM71 °FMild.2 mph68%30.27 "HgN/A
10:00 AM67 °FMild.1 mph73%30.27 "HgN/A
9:00 AM60 °FCool.No wind91%30.26 "HgN/A
8:00 AM57 °FCool.No wind97%30.25 "HgN/A
7:00 AM52 °FCool.2 mph95%30.24 "HgN/A
6:00 AM52 °FCool.1 mph95%30.23 "HgN/A
5:00 AM52 °FCool.No wind94%30.22 "HgN/A
4:00 AM53 °FCool.1 mph95%30.21 "HgN/A
3:00 AM54 °FCool.No wind94%30.22 "HgN/A
2:00 AM55 °FCool.1 mph94%30.22 "HgN/A
1:00 AM57 °FCool.2 mph94%30.22 "HgN/A
12:00 AM59 °FCool.1 mph93%30.22 "HgN/A
11:00 PM
Jul 31
60 °FCool.2 mph90%30.23 "HgN/A
10:00 PM62 °FCool.2 mph85%30.22 "HgN/A
9:00 PM66 °FMild.2 mph82%30.19 "HgN/A
8:00 PM70 °FMild.5 mph71%30.18 "HgN/A
7:00 PM74 °FMild.6 mph57%30.18 "HgN/A
6:00 PM76 °FMild.7 mph56%30.17 "HgN/A
5:00 PM76 °FMild.6 mph59%30.17 "HgN/A
4:00 PM76 °FMild.6 mph57%30.17 "HgN/A
3:00 PM75 °FMild.6 mph64%30.17 "HgN/A
2:00 PM73 °FMild.3 mph65%30.17 "HgN/A
Weather by CustomWeather, © 2014

See weather overviewHow to use our weather pages